Wetterdaten: Mittwoch, 29.05.2013
Datum Zeit Temperatur Luftfeuchte Luftdruck Regen Wind Richtung Richtung Taupunkt Windchill Windben
29.05.2013 00:00 9,4 C 92 % 1005,3 hPa 0,0 l/m 4,5 km/h (1 Bft) S 180 8,2 C 9,2 C 2,3 km/h (1 Bft)
29.05.2013 00:05 9,1 C 92 % 1005,2 hPa 0,0 l/m 0,6 km/h (0 Bft) O 90 7,9 C 9,1 C 0,0 km/h (0 Bft)
29.05.2013 00:10 9,1 C 92 % 1005,2 hPa 0,0 l/m 0,6 km/h (0 Bft) O-NO 67 7,9 C 9,0 C 2,1 km/h (1 Bft)
29.05.2013 00:15 8,9 C 93 % 1005,2 hPa 0,0 l/m 0,8 km/h (0 Bft) W 270 7,8 C 8,8 C 3,2 km/h (1 Bft)
29.05.2013 00:20 8,9 C 93 % 1005,2 hPa 0,0 l/m 0,8 km/h (0 Bft) W 270 7,8 C 8,8 C 5,1 km/h (1 Bft)
29.05.2013 00:25 8,9 C 93 % 1005,2 hPa 0,0 l/m 1,9 km/h (1 Bft) SO 135 7,8 C 8,8 C 5,5 km/h (1 Bft)
29.05.2013 00:30 8,9 C 93 % 1005,2 hPa 0,0 l/m 1,9 km/h (1 Bft) SO 135 7,8 C 8,8 C 9,0 km/h (2 Bft)
29.05.2013 00:35 8,7 C 93 % 1005,2 hPa 0,0 l/m 1,4 km/h (1 Bft) O-SO 112 7,6 C 8,7 C 1,6 km/h (1 Bft)
29.05.2013 00:40 8,7 C 93 % 1005,3 hPa 0,0 l/m 1,4 km/h (1 Bft) O-SO 112 7,6 C 8,6 C 0,0 km/h (0 Bft)
29.05.2013 00:45 8,7 C 93 % 1005,3 hPa 0,0 l/m 1,4 km/h (1 Bft) O-SO 112 7,6 C 8,6 C 0,0 km/h (0 Bft)
29.05.2013 00:50 8,5 C 94 % 1005,3 hPa 0,0 l/m 2,3 km/h (1 Bft) O 90 7,6 C 8,7 C 9,7 km/h (2 Bft)
29.05.2013 00:55 8,5 C 94 % 1005,3 hPa 0,0 l/m 2,3 km/h (1 Bft) O 90 7,6 C 8,7 C 2,4 km/h (1 Bft)
29.05.2013 01:00 8,4 C 94 % 1005,3 hPa 0,0 l/m 2,6 km/h (1 Bft) O-NO 67 7,5 C 8,5 C 2,4 km/h (1 Bft)
29.05.2013 01:05 8,4 C 94 % 1005,2 hPa 0,0 l/m 2,3 km/h (1 Bft) S 180 7,5 C 8,5 C 7,2 km/h (2 Bft)
29.05.2013 01:10 8,5 C 94 % 1005,2 hPa 0,0 l/m 3,2 km/h (1 Bft) S-SO 157 7,6 C 8,7 C 5,3 km/h (1 Bft)
29.05.2013 01:15 8,5 C 94 % 1005,2 hPa 0,0 l/m 3,2 km/h (1 Bft) S-SO 157 7,6 C 8,7 C 5,3 km/h (1 Bft)
29.05.2013 01:20 8,2 C 94 % 1005,0 hPa 0,0 l/m 1,1 km/h (1 Bft) O-SO 112 7,3 C 8,5 C 2,1 km/h (1 Bft)
29.05.2013 01:25 8,2 C 94 % 1005,0 hPa 0,0 l/m 1,1 km/h (1 Bft) O-SO 112 7,3 C 8,5 C 2,1 km/h (1 Bft)
29.05.2013 01:30 8,3 C 94 % 1005,0 hPa 0,0 l/m 1,3 km/h (1 Bft) S 180 7,4 C 8,5 C 1,9 km/h (1 Bft)
29.05.2013 01:35 8,6 C 94 % 1005,0 hPa 0,0 l/m 1,1 km/h (1 Bft) O-SO 112 7,7 C 8,8 C 0,0 km/h (0 Bft)
29.05.2013 01:40 8,6 C 94 % 1005,0 hPa 0,0 l/m 1,1 km/h (1 Bft) O-SO 112 7,7 C 8,8 C 0,0 km/h (0 Bft)
29.05.2013 01:45 8,7 C 94 % 1004,9 hPa 0,0 l/m 1,3 km/h (1 Bft) N-NO 22 7,8 C 8,8 C 3,4 km/h (1 Bft)
29.05.2013 01:50 8,8 C 94 % 1004,9 hPa 0,0 l/m 1,1 km/h (1 Bft) S 180 7,9 C 9,0 C 1,9 km/h (1 Bft)
29.05.2013 01:55 8,8 C 94 % 1004,9 hPa 0,0 l/m 1,1 km/h (1 Bft) S 180 7,9 C 9,0 C 1,9 km/h (1 Bft)
29.05.2013 02:00 8,8 C 94 % 1004,9 hPa 0,0 l/m 1,1 km/h (1 Bft) S-SW 202 7,9 C 9,2 C 3,1 km/h (1 Bft)
29.05.2013 02:05 8,9 C 94 % 1004,8 hPa 0,0 l/m 1,0 km/h (0 Bft) NO 45 8,0 C 9,3 C 1,8 km/h (1 Bft)
29.05.2013 02:10 9,0 C 94 % 1004,8 hPa 0,0 l/m 1,8 km/h (1 Bft) SO 135 8,1 C 9,5 C 7,6 km/h (2 Bft)
29.05.2013 02:15 9,0 C 94 % 1004,8 hPa 0,0 l/m 1,8 km/h (1 Bft) SO 135 8,1 C 9,5 C 7,6 km/h (2 Bft)
29.05.2013 02:20 9,1 C 94 % 1004,8 hPa 0,0 l/m 5,1 km/h (1 Bft) S 180 8,2 C 9,4 C 11,6 km/h (2 Bft)
29.05.2013 02:25 9,1 C 94 % 1004,8 hPa 0,0 l/m 5,1 km/h (1 Bft) S 180 8,2 C 9,4 C 11,6 km/h (2 Bft)
29.05.2013 02:30 9,1 C 94 % 1004,8 hPa 0,0 l/m 4,3 km/h (1 Bft) NO 45 8,2 C 9,7 C 5,6 km/h (1 Bft)
29.05.2013 02:35 9,1 C 94 % 1004,8 hPa 0,0 l/m 4,3 km/h (1 Bft) NO 45 8,2 C 9,7 C 5,6 km/h (1 Bft)
29.05.2013 02:40 9,0 C 93 % 1004,9 hPa 0,0 l/m 3,1 km/h (1 Bft) S-SO 157 7,9 C 9,6 C 4,8 km/h (1 Bft)
29.05.2013 02:45 9,0 C 93 % 1004,9 hPa 0,0 l/m 3,1 km/h (1 Bft) S-SO 157 7,9 C 9,6 C 4,8 km/h (1 Bft)
29.05.2013 02:50 9,1 C 93 % 1004,9 hPa 0,0 l/m 3,7 km/h (1 Bft) S 180 8,0 C 9,6 C 6,4 km/h (2 Bft)
29.05.2013 02:55 9,0 C 93 % 1004,9 hPa 0,0 l/m 4,0 km/h (1 Bft) S 180 7,9 C 9,5 C 2,4 km/h (1 Bft)
29.05.2013 03:00 9,1 C 93 % 1004,6 hPa 0,0 l/m 4,5 km/h (1 Bft) S-SO 157 8,0 C 9,3 C 9,5 km/h (2 Bft)
29.05.2013 03:05 9,1 C 93 % 1004,6 hPa 0,0 l/m 4,5 km/h (1 Bft) S-SO 157 8,0 C 9,3 C 9,5 km/h (2 Bft)
29.05.2013 03:10 9,0 C 93 % 1004,6 hPa 0,0 l/m 4,5 km/h (1 Bft) S 180 7,9 C 9,2 C 6,6 km/h (2 Bft)
29.05.2013 03:15 9,1 C 93 % 1004,6 hPa 0,0 l/m 4,5 km/h (1 Bft) SO 135 8,0 C 9,1 C 4,5 km/h (1 Bft)
29.05.2013 03:20 9,0 C 93 % 1004,5 hPa 0,0 l/m 4,2 km/h (1 Bft) SO 135 7,9 C 9,2 C 4,8 km/h (1 Bft)
29.05.2013 03:25 9,0 C 93 % 1004,5 hPa 0,0 l/m 4,2 km/h (1 Bft) SO 135 7,9 C 9,2 C 4,8 km/h (1 Bft)
29.05.2013 03:30 9,0 C 93 % 1004,5 hPa 0,0 l/m 4,5 km/h (1 Bft) S-SO 157 7,9 C 8,9 C 2,6 km/h (1 Bft)
29.05.2013 03:35 9,0 C 93 % 1004,5 hPa 0,0 l/m 4,5 km/h (1 Bft) S-SO 157 7,9 C 8,9 C 2,6 km/h (1 Bft)
29.05.2013 03:40 8,9 C 93 % 1004,5 hPa 0,0 l/m 3,7 km/h (1 Bft) S 180 7,8 C 9,0 C 6,6 km/h (2 Bft)
29.05.2013 03:45 8,9 C 93 % 1004,3 hPa 0,0 l/m 4,3 km/h (1 Bft) S 180 7,8 C 8,6 C 6,3 km/h (2 Bft)
29.05.2013 03:50 8,9 C 93 % 1004,3 hPa 0,0 l/m 4,2 km/h (1 Bft) O-NO 67 7,8 C 8,7 C 3,4 km/h (1 Bft)
29.05.2013 03:55 8,9 C 93 % 1004,3 hPa 0,0 l/m 4,2 km/h (1 Bft) O-NO 67 7,8 C 8,7 C 3,4 km/h (1 Bft)
29.05.2013 04:00 8,9 C 93 % 1004,2 hPa 0,0 l/m 3,4 km/h (1 Bft) W-SW 247 7,8 C 8,8 C 9,2 km/h (2 Bft)
29.05.2013 04:05 8,9 C 93 % 1004,2 hPa 0,0 l/m 5,1 km/h (1 Bft) S 180 7,8 C 8,3 C 9,3 km/h (2 Bft)
29.05.2013 04:10 8,8 C 93 % 1004,2 hPa 0,0 l/m 5,8 km/h (2 Bft) W-SW 247 7,7 C 8,1 C 10,1 km/h (2 Bft)
29.05.2013 04:15 8,7 C 93 % 1004,2 hPa 0,0 l/m 6,6 km/h (2 Bft) S 180 7,6 C 7,7 C 10,3 km/h (2 Bft)
29.05.2013 04:20 8,6 C 93 % 1004,1 hPa 0,0 l/m 7,1 km/h (2 Bft) S-SW 202 7,5 C 7,0 C 11,3 km/h (2 Bft)
29.05.2013 04:25 8,5 C 92 % 1004,1 hPa 0,0 l/m 7,4 km/h (2 Bft) S 180 7,3 C 6,5 C 9,8 km/h (2 Bft)
29.05.2013 04:30 8,4 C 92 % 1004,1 hPa 0,0 l/m 8,2 km/h (2 Bft) S-SW 202 7,2 C 5,8 C 13,4 km/h (3 Bft)
29.05.2013 04:35 8,4 C 92 % 1004,1 hPa 0,0 l/m 8,2 km/h (2 Bft) S-SW 202 7,2 C 5,8 C 7,7 km/h (2 Bft)
29.05.2013 04:40 8,0 C 91 % 1004,4 hPa 0,0 l/m 8,2 km/h (2 Bft) SO 135 6,6 C 5,2 C 22,5 km/h (4 Bft)
29.05.2013 04:45 7,7 C 91 % 1004,4 hPa 0,0 l/m 10,1 km/h (2 Bft) S 180 6,3 C 3,0 C 12,2 km/h (2 Bft)
29.05.2013 04:50 7,5 C 90 % 1004,4 hPa 0,0 l/m 10,6 km/h (2 Bft) S 180 6,0 C 2,2 C 22,5 km/h (4 Bft)
29.05.2013 04:55 7,5 C 90 % 1004,4 hPa 0,0 l/m 10,6 km/h (2 Bft) S 180 6,0 C 2,2 C 11,6 km/h (2 Bft)
29.05.2013 05:00 7,0 C 90 % 1004,6 hPa 0,0 l/m 10,3 km/h (2 Bft) S 180 5,5 C 1,6 C 12,4 km/h (3 Bft)
29.05.2013 05:05 6,8 C 90 % 1004,6 hPa 0,0 l/m 8,9 km/h (2 Bft) SO 135 5,3 C 2,8 C 3,5 km/h (1 Bft)
29.05.2013 05:10 6,7 C 90 % 1004,6 hPa 0,0 l/m 7,9 km/h (2 Bft) S 180 5,2 C 3,6 C 6,9 km/h (2 Bft)
29.05.2013 05:15 6,5 C 90 % 1004,6 hPa 0,0 l/m 7,9 km/h (2 Bft) S-SO 157 5,0 C 3,5 C 12,4 km/h (3 Bft)
29.05.2013 05:20 6,5 C 90 % 1004,6 hPa 0,0 l/m 7,9 km/h (2 Bft) S-SO 157 5,0 C 3,5 C 12,4 km/h (3 Bft)
29.05.2013 05:25 6,5 C 90 % 1004,4 hPa 0,0 l/m 7,7 km/h (2 Bft) S-SW 202 5,0 C 3,5 C 5,6 km/h (1 Bft)
29.05.2013 05:30 6,4 C 90 % 1004,4 hPa 0,0 l/m 7,7 km/h (2 Bft) S-SO 157 4,9 C 3,3 C 10,8 km/h (2 Bft)
29.05.2013 05:35 6,4 C 90 % 1004,4 hPa 0,0 l/m 7,6 km/h (2 Bft) S-SO 157 4,9 C 3,4 C 13,7 km/h (3 Bft)
29.05.2013 05:40 6,3 C 90 % 1004,4 hPa 0,0 l/m 7,4 km/h (2 Bft) S 180 4,8 C 3,7 C 4,7 km/h (1 Bft)
29.05.2013 05:45 6,1 C 91 % 1004,3 hPa 0,0 l/m 7,4 km/h (2 Bft) SO 135 4,7 C 3,4 C 14,5 km/h (3 Bft)
29.05.2013 05:50 6,1 C 91 % 1004,3 hPa 0,0 l/m 7,6 km/h (2 Bft) S 180 4,7 C 3,0 C 5,3 km/h (1 Bft)
29.05.2013 05:55 5,8 C 92 % 1004,3 hPa 0,0 l/m 8,0 km/h (2 Bft) O-SO 112 4,6 C 2,4 C 8,2 km/h (2 Bft)
29.05.2013 06:00 5,7 C 92 % 1004,5 hPa 0,0 l/m 7,4 km/h (2 Bft) S 180 4,5 C 3,1 C 6,6 km/h (2 Bft)
29.05.2013 06:05 5,7 C 92 % 1004,5 hPa 0,0 l/m 7,4 km/h (2 Bft) S 180 4,5 C 3,1 C 6,6 km/h (2 Bft)
29.05.2013 06:10 5,5 C 92 % 1004,5 hPa 0,0 l/m 7,4 km/h (2 Bft) NO 45 4,3 C 2,8 C 13,0 km/h (3 Bft)
29.05.2013 06:15 5,5 C 92 % 1004,5 hPa 0,0 l/m 7,4 km/h (2 Bft) NO 45 4,3 C 2,8 C 13,0 km/h (3 Bft)
29.05.2013 06:20 5,2 C 92 % 1004,5 hPa 0,7 l/m 9,5 km/h (2 Bft) S-SO 157 4,0 C 0,1 C 15,8 km/h (3 Bft)
29.05.2013 06:25 4,7 C 93 % 1004,7 hPa 0,0 l/m 10,1 km/h (2 Bft) S 180 3,7 C -1,1 C 5,0 km/h (1 Bft)
29.05.2013 06:30 4,7 C 93 % 1004,7 hPa 0,0 l/m 11,6 km/h (2 Bft) S 180 3,7 C -2,8 C 20,4 km/h (4 Bft)
29.05.2013 06:35 4,6 C 93 % 1004,7 hPa 0,7 l/m 10,8 km/h (2 Bft) SW 225 3,6 C -2,3 C 7,7 km/h (2 Bft)
29.05.2013 06:40 4,6 C 93 % 1004,7 hPa 0,0 l/m 10,8 km/h (2 Bft) SW 225 3,6 C -2,3 C 22,9 km/h (4 Bft)
29.05.2013 06:45 4,4 C 93 % 1004,8 hPa 0,7 l/m 11,6 km/h (2 Bft) S-SO 157 3,4 C -3,2 C 8,7 km/h (2 Bft)
29.05.2013 06:50 4,4 C 93 % 1004,8 hPa 0,0 l/m 11,6 km/h (2 Bft) S-SO 157 3,4 C -3,2 C 24,5 km/h (4 Bft)
29.05.2013 06:55 4,3 C 93 % 1004,8 hPa 0,0 l/m 11,7 km/h (2 Bft) W-NW 292 3,3 C -3,4 C 14,5 km/h (3 Bft)
29.05.2013 07:00 4,1 C 94 % 1005,4 hPa 0,7 l/m 10,6 km/h (2 Bft) S-SO 157 3,2 C -2,5 C 19,0 km/h (3 Bft)
29.05.2013 07:05 4,1 C 94 % 1005,4 hPa 0,0 l/m 10,6 km/h (2 Bft) S-SO 157 3,2 C -2,5 C 19,0 km/h (3 Bft)
29.05.2013 07:10 4,0 C 94 % 1005,4 hPa 0,7 l/m 9,8 km/h (2 Bft) S 180 3,1 C -2,0 C 10,9 km/h (2 Bft)
29.05.2013 07:15 3,9 C 94 % 1005,4 hPa 0,0 l/m 9,5 km/h (2 Bft) S 180 3,0 C -1,6 C 14,6 km/h (3 Bft)
29.05.2013 07:20 3,8 C 94 % 1005,8 hPa 0,7 l/m 9,2 km/h (2 Bft) S 180 2,9 C -1,5 C 4,0 km/h (1 Bft)
29.05.2013 07:25 3,8 C 94 % 1005,8 hPa 0,0 l/m 9,2 km/h (2 Bft) S 180 2,9 C -1,5 C 4,0 km/h (1 Bft)
29.05.2013 07:30 3,6 C 94 % 1005,8 hPa 0,0 l/m 9,3 km/h (2 Bft) S 180 2,7 C -1,9 C 13,4 km/h (3 Bft)
29.05.2013 07:35 3,5 C 94 % 1005,8 hPa 0,7 l/m 8,7 km/h (2 Bft) S-SW 202 2,6 C -1,3 C 14,5 km/h (3 Bft)
29.05.2013 07:40 3,4 C 94 % 1006,1 hPa 0,0 l/m 8,9 km/h (2 Bft) S 180 2,5 C -1,6 C 14,0 km/h (3 Bft)
29.05.2013 07:45 3,3 C 94 % 1006,1 hPa 0,0 l/m 9,5 km/h (2 Bft) S-SW 202 2,4 C -2,4 C 9,0 km/h (2 Bft)
29.05.2013 07:50 3,2 C 94 % 1006,1 hPa 0,7 l/m 8,5 km/h (2 Bft) S 180 2,3 C -1,4 C 9,0 km/h (2 Bft)
29.05.2013 07:55 3,1 C 94 % 1006,1 hPa 0,0 l/m 7,9 km/h (2 Bft) S 180 2,2 C -0,8 C 8,0 km/h (2 Bft)
29.05.2013 08:00 3,0 C 94 % 1006,1 hPa 0,7 l/m 9,2 km/h (2 Bft) S 180 2,1 C -2,5 C 23,0 km/h (4 Bft)
29.05.2013 08:05 2,9 C 95 % 1006,1 hPa 0,0 l/m 9,8 km/h (2 Bft) S-SW 202 2,2 C -3,5 C 15,3 km/h (3 Bft)
29.05.2013 08:10 3,0 C 94 % 1006,1 hPa 0,0 l/m 9,8 km/h (2 Bft) S-SW 202 2,1 C -3,5 C 13,7 km/h (3 Bft)
29.05.2013 08:15 3,2 C 94 % 1006,1 hPa 0,7 l/m 6,8 km/h (2 Bft) SO 135 2,3 C 0,5 C 9,8 km/h (2 Bft)
29.05.2013 08:20 3,4 C 94 % 1006,1 hPa 0,0 l/m 5,3 km/h (1 Bft) O-SO 112 2,5 C 1,8 C 4,0 km/h (1 Bft)
29.05.2013 08:25 3,7 C 95 % 1006,1 hPa 0,0 l/m 4,7 km/h (1 Bft) S 180 3,0 C 2,3 C 11,1 km/h (2 Bft)
29.05.2013 08:30 3,7 C 95 % 1006,1 hPa 0,0 l/m 4,7 km/h (1 Bft) S 180 3,0 C 2,3 C 11,1 km/h (2 Bft)
29.05.2013 08:35 3,7 C 95 % 1006,1 hPa 0,0 l/m 3,7 km/h (1 Bft) SO 135 3,0 C 2,9 C 4,8 km/h (1 Bft)
29.05.2013 08:40 4,0 C 95 % 1006,2 hPa 0,0 l/m 4,7 km/h (1 Bft) S 180 3,3 C 2,8 C 7,4 km/h (2 Bft)
29.05.2013 08:45 4,0 C 95 % 1006,2 hPa 0,0 l/m 5,3 km/h (1 Bft) S 180 3,3 C 2,6 C 7,4 km/h (2 Bft)
29.05.2013 08:50 4,0 C 95 % 1006,2 hPa 0,0 l/m 5,3 km/h (1 Bft) S 180 3,3 C 2,6 C 7,4 km/h (2 Bft)
29.05.2013 08:55 4,3 C 95 % 1006,2 hPa 0,0 l/m 6,4 km/h (2 Bft) S-SO 157 3,6 C 2,4 C 12,7 km/h (3 Bft)
29.05.2013 09:00 4,4 C 95 % 1006,1 hPa 0,0 l/m 5,8 km/h (2 Bft) S-SO 157 3,7 C 2,8 C 4,5 km/h (1 Bft)
29.05.2013 09:05 4,6 C 95 % 1006,1 hPa 0,0 l/m 6,0 km/h (2 Bft) SO 135 3,9 C 2,9 C 8,0 km/h (2 Bft)
29.05.2013 09:10 4,7 C 95 % 1006,1 hPa 0,7 l/m 6,4 km/h (2 Bft) SW 225 4,0 C 2,8 C 8,2 km/h (2 Bft)
29.05.2013 09:15 4,7 C 95 % 1006,1 hPa 0,0 l/m 6,4 km/h (2 Bft) SW 225 4,0 C 2,8 C 8,2 km/h (2 Bft)
29.05.2013 09:20 4,9 C 95 % 1006,1 hPa 0,0 l/m 5,1 km/h (1 Bft) S 180 4,2 C 3,7 C 8,7 km/h (2 Bft)
29.05.2013 09:25 5,1 C 95 % 1006,2 hPa 0,0 l/m 4,5 km/h (1 Bft) S-SW 202 4,4 C 4,3 C 7,6 km/h (2 Bft)
29.05.2013 09:30 5,0 C 95 % 1006,2 hPa 0,0 l/m 5,5 km/h (1 Bft) S 180 4,3 C 4,0 C 6,1 km/h (2 Bft)
29.05.2013 09:35 5,0 C 95 % 1006,2 hPa 0,0 l/m 5,5 km/h (1 Bft) S 180 4,3 C 4,0 C 6,1 km/h (2 Bft)
29.05.2013 09:40 5,5 C 94 % 1006,2 hPa 0,0 l/m 6,3 km/h (2 Bft) S-SW 202 4,6 C 4,1 C 5,5 km/h (1 Bft)
29.05.2013 09:45 5,8 C 94 % 1006,3 hPa 0,0 l/m 5,0 km/h (1 Bft) S 180 4,9 C 4,9 C 4,8 km/h (1 Bft)
29.05.2013 09:50 5,6 C 94 % 1006,3 hPa 0,0 l/m 5,1 km/h (1 Bft) S 180 4,7 C 4,9 C 2,9 km/h (1 Bft)
29.05.2013 09:55 5,4 C 94 % 1006,3 hPa 0,0 l/m 6,1 km/h (2 Bft) S-SW 202 4,5 C 4,4 C 5,3 km/h (1 Bft)
29.05.2013 10:00 5,4 C 94 % 1006,3 hPa 0,0 l/m 6,1 km/h (2 Bft) S-SO 157 4,5 C 4,2 C 7,1 km/h (2 Bft)
29.05.2013 10:05 5,4 C 94 % 1006,3 hPa 0,0 l/m 4,8 km/h (1 Bft) S 180 4,5 C 4,7 C 6,0 km/h (2 Bft)
29.05.2013 10:10 5,6 C 94 % 1006,3 hPa 0,0 l/m 4,2 km/h (1 Bft) S 180 4,7 C 5,0 C 8,7 km/h (2 Bft)
29.05.2013 10:15 5,7 C 94 % 1006,3 hPa 0,0 l/m 4,3 km/h (1 Bft) O-SO 112 4,8 C 5,0 C 1,8 km/h (1 Bft)
29.05.2013 10:20 5,6 C 93 % 1006,6 hPa 0,0 l/m 5,6 km/h (1 Bft) S 180 4,6 C 4,7 C 12,9 km/h (3 Bft)
29.05.2013 10:25 5,7 C 93 % 1006,6 hPa 0,0 l/m 6,3 km/h (2 Bft) O-SO 112 4,7 C 4,4 C 7,6 km/h (2 Bft)
29.05.2013 10:30 5,7 C 93 % 1006,6 hPa 0,0 l/m 7,2 km/h (2 Bft) S-SO 157 4,7 C 3,5 C 9,0 km/h (2 Bft)
29.05.2013 10:35 6,0 C 91 % 1006,6 hPa 0,0 l/m 7,1 km/h (2 Bft) S 180 4,6 C 3,8 C 4,0 km/h (1 Bft)
29.05.2013 10:40 6,0 C 91 % 1006,6 hPa 0,0 l/m 6,0 km/h (2 Bft) S 180 4,6 C 5,0 C 7,4 km/h (2 Bft)
29.05.2013 10:45 6,2 C 91 % 1006,6 hPa 0,0 l/m 4,7 km/h (1 Bft) N-NO 22 4,8 C 5,6 C 4,8 km/h (1 Bft)
29.05.2013 10:50 6,2 C 91 % 1006,6 hPa 0,0 l/m 4,7 km/h (1 Bft) N-NO 22 4,8 C 5,6 C 4,8 km/h (1 Bft)
29.05.2013 10:55 6,8 C 91 % 1006,6 hPa 0,0 l/m 6,0 km/h (2 Bft) S-SO 157 5,4 C 5,6 C 10,0 km/h (2 Bft)
29.05.2013 11:00 6,8 C 91 % 1006,6 hPa 0,0 l/m 6,0 km/h (2 Bft) S-SO 157 5,4 C 5,6 C 10,0 km/h (2 Bft)
29.05.2013 11:05 6,7 C 90 % 1006,4 hPa 0,0 l/m 6,4 km/h (2 Bft) S 180 5,2 C 5,6 C 13,0 km/h (3 Bft)
29.05.2013 11:10 6,9 C 89 % 1006,4 hPa 0,0 l/m 7,2 km/h (2 Bft) S-SW 202 5,2 C 5,0 C 13,7 km/h (3 Bft)
29.05.2013 11:15 6,9 C 89 % 1006,4 hPa 0,0 l/m 7,2 km/h (2 Bft) S-SW 202 5,2 C 5,0 C 13,7 km/h (3 Bft)
29.05.2013 11:20 6,4 C 89 % 1006,4 hPa 0,0 l/m 6,9 km/h (2 Bft) SW 225 4,7 C 5,1 C 7,2 km/h (2 Bft)
29.05.2013 11:25 6,0 C 89 % 1006,4 hPa 0,0 l/m 6,3 km/h (2 Bft) S-SO 157 4,3 C 5,1 C 6,1 km/h (2 Bft)
29.05.2013 11:30 6,0 C 89 % 1006,4 hPa 0,0 l/m 6,3 km/h (2 Bft) S-SO 157 4,3 C 5,1 C 6,1 km/h (2 Bft)
29.05.2013 11:35 5,9 C 91 % 1006,4 hPa 0,7 l/m 5,0 km/h (1 Bft) S 180 4,5 C 5,2 C 7,2 km/h (2 Bft)
29.05.2013 11:40 5,9 C 91 % 1006,4 hPa 0,0 l/m 5,0 km/h (1 Bft) S 180 4,5 C 5,2 C 7,2 km/h (2 Bft)
29.05.2013 11:45 5,6 C 91 % 1006,6 hPa 0,0 l/m 6,6 km/h (2 Bft) W-SW 247 4,2 C 4,0 C 10,5 km/h (2 Bft)
29.05.2013 11:50 5,3 C 90 % 1006,6 hPa 0,0 l/m 6,4 km/h (2 Bft) SW 225 3,8 C 4,0 C 5,5 km/h (1 Bft)
29.05.2013 11:55 5,8 C 91 % 1006,6 hPa 0,0 l/m 5,0 km/h (1 Bft) S 180 4,4 C 4,7 C 5,3 km/h (1 Bft)
29.05.2013 12:00 6,2 C 90 % 1006,5 hPa 0,7 l/m 3,7 km/h (1 Bft) S 180 4,7 C 5,5 C 5,8 km/h (2 Bft)
29.05.2013 12:05 6,2 C 90 % 1006,5 hPa 0,0 l/m 3,7 km/h (1 Bft) S 180 4,7 C 5,5 C 5,8 km/h (2 Bft)
29.05.2013 12:10 6,6 C 90 % 1006,5 hPa 0,0 l/m 3,5 km/h (1 Bft) SW 225 5,1 C 6,3 C 5,3 km/h (1 Bft)
29.05.2013 12:15 6,9 C 90 % 1006,5 hPa 0,0 l/m 2,7 km/h (1 Bft) SO 135 5,4 C 6,9 C 1,9 km/h (1 Bft)
29.05.2013 12:20 7,4 C 90 % 1006,9 hPa 0,0 l/m 3,4 km/h (1 Bft) S-SW 202 5,9 C 7,4 C 6,3 km/h (2 Bft)
29.05.2013 12:25 7,4 C 90 % 1006,9 hPa 0,0 l/m 3,4 km/h (1 Bft) S-SW 202 5,9 C 7,4 C 6,3 km/h (2 Bft)
29.05.2013 12:30 7,3 C 89 % 1006,9 hPa 0,0 l/m 6,1 km/h (2 Bft) W-SW 247 5,6 C 6,8 C 7,2 km/h (2 Bft)
29.05.2013 12:35 7,3 C 89 % 1006,9 hPa 0,7 l/m 6,1 km/h (2 Bft) S 180 5,6 C 6,7 C 8,9 km/h (2 Bft)
29.05.2013 12:40 6,9 C 89 % 1007,1 hPa 0,0 l/m 6,3 km/h (2 Bft) S 180 5,2 C 6,2 C 7,2 km/h (2 Bft)
29.05.2013 12:45 6,8 C 89 % 1007,1 hPa 0,0 l/m 6,4 km/h (2 Bft) S-SO 157 5,1 C 5,7 C 8,0 km/h (2 Bft)
29.05.2013 12:50 6,7 C 89 % 1007,1 hPa 0,0 l/m 6,8 km/h (2 Bft) S-SO 157 5,0 C 5,1 C 3,9 km/h (1 Bft)
29.05.2013 12:55 6,7 C 89 % 1007,1 hPa 0,0 l/m 6,8 km/h (2 Bft) S-SO 157 5,0 C 5,1 C 3,9 km/h (1 Bft)
29.05.2013 13:00 6,8 C 90 % 1007,1 hPa 0,0 l/m 5,3 km/h (1 Bft) N-NO 22 5,3 C 5,9 C 3,1 km/h (1 Bft)
29.05.2013 13:05 6,9 C 90 % 1007,1 hPa 0,0 l/m 5,5 km/h (1 Bft) SO 135 5,4 C 6,1 C 5,8 km/h (2 Bft)
29.05.2013 13:10 7,4 C 89 % 1007,1 hPa 0,0 l/m 6,1 km/h (2 Bft) S-SO 157 5,7 C 6,1 C 5,3 km/h (1 Bft)
29.05.2013 13:15 9,2 C 87 % 1007,1 hPa 0,0 l/m 7,2 km/h (2 Bft) SO 135 7,2 C 7,1 C 10,6 km/h (2 Bft)
29.05.2013 13:20 8,5 C 86 % 1006,9 hPa 0,0 l/m 7,9 km/h (2 Bft) W-SW 247 6,3 C 6,7 C 15,0 km/h (3 Bft)
29.05.2013 13:25 9,8 C 82 % 1006,9 hPa 0,0 l/m 10,1 km/h (2 Bft) SO 135 6,9 C 5,5 C 18,8 km/h (3 Bft)
29.05.2013 13:30 9,5 C 80 % 1006,9 hPa 0,0 l/m 10,0 km/h (2 Bft) W-SW 247 6,2 C 6,7 C 6,3 km/h (2 Bft)
29.05.2013 13:35 9,1 C 80 % 1006,9 hPa 0,0 l/m 9,0 km/h (2 Bft) S 180 5,8 C 7,9 C 11,3 km/h (2 Bft)
29.05.2013 13:40 9,1 C 80 % 1006,9 hPa 0,0 l/m 9,0 km/h (2 Bft) S 180 5,8 C 7,9 C 11,3 km/h (2 Bft)
29.05.2013 13:45 8,9 C 82 % 1007,4 hPa 0,0 l/m 8,9 km/h (2 Bft) S 180 6,0 C 7,5 C 10,9 km/h (2 Bft)
29.05.2013 13:50 9,0 C 79 % 1007,4 hPa 0,0 l/m 9,8 km/h (2 Bft) S 180 5,6 C 6,7 C 21,6 km/h (4 Bft)
29.05.2013 13:55 8,8 C 79 % 1007,4 hPa 0,0 l/m 10,1 km/h (2 Bft) W-SW 247 5,4 C 6,5 C 15,4 km/h (3 Bft)
29.05.2013 14:00 8,8 C 79 % 1007,4 hPa 0,0 l/m 10,1 km/h (2 Bft) W-SW 247 5,4 C 6,5 C 15,4 km/h (3 Bft)
29.05.2013 14:05 9,3 C 82 % 1007,5 hPa 0,0 l/m 7,7 km/h (2 Bft) SO 135 6,4 C 9,0 C 8,5 km/h (2 Bft)
29.05.2013 14:10 9,3 C 82 % 1007,5 hPa 0,0 l/m 7,6 km/h (2 Bft) SO 135 6,4 C 9,0 C 13,4 km/h (3 Bft)
29.05.2013 14:15 9,3 C 82 % 1007,5 hPa 0,0 l/m 7,6 km/h (2 Bft) SO 135 6,4 C 9,0 C 13,4 km/h (3 Bft)
29.05.2013 14:20 8,3 C 82 % 1007,6 hPa 0,0 l/m 7,9 km/h (2 Bft) S-SW 202 5,4 C 7,6 C 10,5 km/h (2 Bft)
29.05.2013 14:25 8,6 C 83 % 1007,6 hPa 0,0 l/m 7,1 km/h (2 Bft) S 180 5,9 C 8,2 C 8,9 km/h (2 Bft)
29.05.2013 14:30 8,4 C 82 % 1007,6 hPa 0,0 l/m 6,0 km/h (2 Bft) S-SW 202 5,5 C 8,9 C 6,1 km/h (2 Bft)
29.05.2013 14:35 7,7 C 84 % 1007,6 hPa 0,0 l/m 6,9 km/h (2 Bft) S 180 5,2 C 7,2 C 9,7 km/h (2 Bft)
29.05.2013 14:40 7,7 C 85 % 1008,2 hPa 0,0 l/m 7,2 km/h (2 Bft) SW 225 5,3 C 6,2 C 8,9 km/h (2 Bft)
29.05.2013 14:45 7,9 C 86 % 1008,2 hPa 0,0 l/m 6,0 km/h (2 Bft) S-SO 157 5,7 C 7,1 C 4,5 km/h (1 Bft)
29.05.2013 14:50 7,9 C 86 % 1008,2 hPa 0,0 l/m 6,0 km/h (2 Bft) S-SO 157 5,7 C 7,1 C 4,5 km/h (1 Bft)
29.05.2013 14:55 7,3 C 84 % 1008,2 hPa 0,0 l/m 7,4 km/h (2 Bft) S 180 4,8 C 5,5 C 8,4 km/h (2 Bft)
29.05.2013 15:00 7,3 C 84 % 1008,2 hPa 0,0 l/m 7,4 km/h (2 Bft) S 180 4,8 C 5,5 C 8,4 km/h (2 Bft)
29.05.2013 15:05 7,7 C 85 % 1007,6 hPa 0,0 l/m 7,6 km/h (2 Bft) S-SW 202 5,3 C 5,4 C 8,7 km/h (2 Bft)
29.05.2013 15:10 8,0 C 85 % 1007,6 hPa 0,0 l/m 7,6 km/h (2 Bft) S 180 5,6 C 5,7 C 13,0 km/h (3 Bft)
29.05.2013 15:15 8,0 C 85 % 1007,6 hPa 0,0 l/m 7,6 km/h (2 Bft) S 180 5,6 C 5,7 C 13,0 km/h (3 Bft)
29.05.2013 15:20 8,0 C 85 % 1007,6 hPa 0,0 l/m 7,6 km/h (2 Bft) S-SO 157 5,6 C 6,2 C 12,9 km/h (3 Bft)
29.05.2013 15:25 8,3 C 82 % 1007,7 hPa 0,0 l/m 8,7 km/h (2 Bft) S 180 5,4 C 5,1 C 9,8 km/h (2 Bft)
29.05.2013 15:30 8,6 C 82 % 1007,7 hPa 0,0 l/m 8,4 km/h (2 Bft) S-SW 202 5,7 C 5,8 C 8,7 km/h (2 Bft)
29.05.2013 15:35 8,4 C 81 % 1007,7 hPa 0,0 l/m 7,4 km/h (2 Bft) S-SO 157 5,3 C 7,0 C 9,3 km/h (2 Bft)
29.05.2013 15:40 8,3 C 83 % 1007,9 hPa 0,0 l/m 7,2 km/h (2 Bft) S-SO 157 5,6 C 7,1 C 7,4 km/h (2 Bft)
29.05.2013 15:45 8,3 C 83 % 1007,9 hPa 0,0 l/m 7,2 km/h (2 Bft) S-SO 157 5,6 C 7,1 C 7,4 km/h (2 Bft)
29.05.2013 15:50 8,4 C 82 % 1007,9 hPa 0,0 l/m 6,8 km/h (2 Bft) S 180 5,5 C 7,9 C 8,5 km/h (2 Bft)
29.05.2013 15:55 8,4 C 82 % 1007,9 hPa 0,0 l/m 6,8 km/h (2 Bft) S 180 5,5 C 7,9 C 8,5 km/h (2 Bft)
29.05.2013 16:00 8,6 C 80 % 1008,0 hPa 0,0 l/m 7,2 km/h (2 Bft) S 180 5,3 C 7,8 C 9,7 km/h (2 Bft)
29.05.2013 16:05 8,4 C 80 % 1008,0 hPa 0,0 l/m 6,9 km/h (2 Bft) S-SW 202 5,2 C 8,1 C 4,3 km/h (1 Bft)
29.05.2013 16:10 8,7 C 81 % 1008,0 hPa 0,0 l/m 6,0 km/h (2 Bft) S 180 5,6 C 8,8 C 5,8 km/h (2 Bft)
29.05.2013 16:15 8,6 C 80 % 1008,0 hPa 0,0 l/m 5,5 km/h (1 Bft) S-SW 202 5,3 C 9,1 C 8,7 km/h (2 Bft)
29.05.2013 16:20 8,6 C 80 % 1007,9 hPa 0,0 l/m 6,1 km/h (2 Bft) SO 135 5,3 C 8,8 C 4,0 km/h (1 Bft)
29.05.2013 16:25 8,8 C 80 % 1007,9 hPa 0,0 l/m 5,5 km/h (1 Bft) S 180 5,5 C 9,3 C 2,4 km/h (1 Bft)
29.05.2013 16:30 8,8 C 80 % 1007,9 hPa 0,0 l/m 5,5 km/h (1 Bft) S 180 5,5 C 9,3 C 2,4 km/h (1 Bft)
29.05.2013 16:35 8,7 C 79 % 1007,9 hPa 0,0 l/m 5,6 km/h (1 Bft) S-SO 157 5,3 C 9,2 C 7,9 km/h (2 Bft)
29.05.2013 16:40 8,8 C 79 % 1008,2 hPa 0,0 l/m 5,5 km/h (1 Bft) W-SW 247 5,4 C 9,3 C 4,8 km/h (1 Bft)
29.05.2013 16:45 8,9 C 79 % 1008,2 hPa 0,0 l/m 4,8 km/h (1 Bft) S 180 5,5 C 9,6 C 3,2 km/h (1 Bft)
29.05.2013 16:50 8,9 C 78 % 1008,2 hPa 0,0 l/m 4,7 km/h (1 Bft) S-SW 202 5,3 C 9,8 C 9,2 km/h (2 Bft)
29.05.2013 16:55 8,9 C 78 % 1008,2 hPa 0,0 l/m 5,1 km/h (1 Bft) S 180 5,3 C 9,7 C 7,2 km/h (2 Bft)
29.05.2013 17:00 9,0 C 78 % 1008,1 hPa 0,0 l/m 5,3 km/h (1 Bft) S 180 5,4 C 9,7 C 3,1 km/h (1 Bft)
29.05.2013 17:05 9,0 C 77 % 1008,1 hPa 0,0 l/m 5,0 km/h (1 Bft) SW 225 5,2 C 9,9 C 10,6 km/h (2 Bft)
29.05.2013 17:10 8,9 C 77 % 1008,1 hPa 0,0 l/m 5,6 km/h (1 Bft) S 180 5,1 C 9,4 C 9,8 km/h (2 Bft)
29.05.2013 17:15 8,9 C 78 % 1008,1 hPa 0,0 l/m 6,3 km/h (2 Bft) S 180 5,3 C 9,1 C 5,1 km/h (1 Bft)
29.05.2013 17:20 9,2 C 78 % 1008,2 hPa 0,0 l/m 5,6 km/h (1 Bft) S 180 5,6 C 9,3 C 5,1 km/h (1 Bft)
29.05.2013 17:25 9,3 C 78 % 1008,2 hPa 0,0 l/m 4,8 km/h (1 Bft) W-SW 247 5,7 C 10,1 C 4,3 km/h (1 Bft)
29.05.2013 17:30 9,3 C 78 % 1008,2 hPa 0,0 l/m 4,8 km/h (1 Bft) W-SW 247 5,7 C 10,1 C 4,3 km/h (1 Bft)
29.05.2013 17:35 9,5 C 77 % 1008,2 hPa 0,0 l/m 3,7 km/h (1 Bft) SO 135 5,7 C 10,5 C 3,4 km/h (1 Bft)
29.05.2013 17:40 9,4 C 77 % 1008,1 hPa 0,0 l/m 3,4 km/h (1 Bft) S-SW 202 5,6 C 10,8 C 2,1 km/h (1 Bft)
29.05.2013 17:45 9,4 C 77 % 1008,1 hPa 0,0 l/m 3,4 km/h (1 Bft) S-SW 202 5,6 C 11,0 C 6,1 km/h (2 Bft)
29.05.2013 17:50 9,4 C 77 % 1008,1 hPa 0,0 l/m 3,4 km/h (1 Bft) S-SW 202 5,6 C 11,0 C 6,1 km/h (2 Bft)
29.05.2013 17:55 9,3 C 70 % 1008,1 hPa 0,0 l/m 5,3 km/h (1 Bft) S 180 4,1 C 10,7 C 11,1 km/h (2 Bft)
29.05.2013 18:00 9,3 C 70 % 1008,1 hPa 0,0 l/m 5,3 km/h (1 Bft) S 180 4,1 C 10,7 C 11,1 km/h (2 Bft)
29.05.2013 18:05 9,0 C 70 % 1008,1 hPa 0,0 l/m 6,4 km/h (2 Bft) S 180 3,8 C 9,7 C 4,5 km/h (1 Bft)
29.05.2013 18:10 9,0 C 72 % 1008,1 hPa 0,0 l/m 6,1 km/h (2 Bft) S-SW 202 4,2 C 9,6 C 4,3 km/h (1 Bft)
29.05.2013 18:15 8,9 C 71 % 1008,1 hPa 0,0 l/m 4,3 km/h (1 Bft) S 180 3,9 C 9,8 C 7,1 km/h (2 Bft)
29.05.2013 18:20 8,8 C 70 % 1008,2 hPa 0,0 l/m 5,0 km/h (1 Bft) S-SW 202 3,6 C 9,5 C 6,9 km/h (2 Bft)
29.05.2013 18:25 9,0 C 71 % 1008,2 hPa 0,0 l/m 5,6 km/h (1 Bft) S 180 4,0 C 9,2 C 6,6 km/h (2 Bft)
29.05.2013 18:30 9,1 C 71 % 1008,2 hPa 0,0 l/m 4,7 km/h (1 Bft) S 180 4,1 C 9,6 C 6,0 km/h (2 Bft)
29.05.2013 18:35 9,0 C 72 % 1008,2 hPa 0,0 l/m 4,5 km/h (1 Bft) S 180 4,2 C 9,9 C 6,8 km/h (2 Bft)
29.05.2013 18:40 8,9 C 72 % 1008,5 hPa 0,0 l/m 3,9 km/h (1 Bft) SW 225 4,1 C 9,9 C 6,8 km/h (2 Bft)
29.05.2013 18:45 8,8 C 72 % 1008,5 hPa 0,0 l/m 3,5 km/h (1 Bft) S 180 4,0 C 9,7 C 3,7 km/h (1 Bft)
29.05.2013 18:50 8,5 C 71 % 1008,5 hPa 0,0 l/m 4,3 km/h (1 Bft) S-SO 157 3,5 C 9,3 C 3,7 km/h (1 Bft)
29.05.2013 18:55 8,2 C 72 % 1008,5 hPa 0,0 l/m 4,2 km/h (1 Bft) S 180 3,5 C 9,0 C 3,5 km/h (1 Bft)
29.05.2013 19:00 8,2 C 73 % 1008,5 hPa 0,0 l/m 3,9 km/h (1 Bft) W 270 3,7 C 8,9 C 2,1 km/h (1 Bft)
29.05.2013 19:05 8,1 C 74 % 1008,5 hPa 0,0 l/m 4,0 km/h (1 Bft) S-SO 157 3,8 C 8,7 C 5,1 km/h (1 Bft)
29.05.2013 19:10 8,1 C 74 % 1008,5 hPa 0,0 l/m 3,2 km/h (1 Bft) S-SO 157 3,8 C 8,6 C 1,9 km/h (1 Bft)
29.05.2013 19:15 8,1 C 75 % 1008,5 hPa 0,0 l/m 3,4 km/h (1 Bft) S-SW 202 3,9 C 8,6 C 5,1 km/h (1 Bft)
29.05.2013 19:20 8,1 C 75 % 1008,5 hPa 0,0 l/m 3,4 km/h (1 Bft) S-SW 202 3,9 C 8,6 C 5,1 km/h (1 Bft)
29.05.2013 19:25 8,1 C 75 % 1008,6 hPa 0,0 l/m 1,9 km/h (1 Bft) O 90 3,9 C 8,6 C 1,8 km/h (1 Bft)
29.05.2013 19:30 8,1 C 75 % 1008,6 hPa 0,0 l/m 1,9 km/h (1 Bft) O 90 3,9 C 8,6 C 1,8 km/h (1 Bft)
29.05.2013 19:35 8,1 C 76 % 1008,6 hPa 0,0 l/m 0,5 km/h (0 Bft) S-SO 157 4,1 C 8,8 C 2,1 km/h (1 Bft)
29.05.2013 19:40 8,4 C 76 % 1008,4 hPa 0,0 l/m 1,1 km/h (1 Bft) W-SW 247 4,4 C 9,4 C 1,9 km/h (1 Bft)
29.05.2013 19:45 8,9 C 74 % 1008,4 hPa 0,0 l/m 2,4 km/h (1 Bft) SO 135 4,5 C 11,1 C 4,3 km/h (1 Bft)
29.05.2013 19:50 9,0 C 73 % 1008,4 hPa 0,0 l/m 2,9 km/h (1 Bft) S-SW 202 4,4 C 11,5 C 3,9 km/h (1 Bft)
29.05.2013 19:55 8,7 C 72 % 1008,4 hPa 0,0 l/m 2,9 km/h (1 Bft) S-SW 202 3,9 C 11,1 C 1,6 km/h (1 Bft)
29.05.2013 20:00 8,7 C 72 % 1008,4 hPa 0,0 l/m 2,9 km/h (1 Bft) S-SW 202 3,9 C 11,1 C 1,6 km/h (1 Bft)
29.05.2013 20:05 8,4 C 73 % 1008,4 hPa 0,0 l/m 2,4 km/h (1 Bft) S-SW 202 3,8 C 10,0 C 1,8 km/h (1 Bft)
29.05.2013 20:10 8,6 C 73 % 1008,4 hPa 0,0 l/m 2,4 km/h (1 Bft) S 180 4,0 C 10,4 C 2,9 km/h (1 Bft)
29.05.2013 20:15 8,2 C 73 % 1008,4 hPa 0,0 l/m 2,3 km/h (1 Bft) S 180 3,7 C 10,0 C 2,6 km/h (1 Bft)
29.05.2013 20:20 8,1 C 72 % 1008,6 hPa 0,0 l/m 2,6 km/h (1 Bft) S 180 3,4 C 9,7 C 6,1 km/h (2 Bft)
29.05.2013 20:25 7,7 C 73 % 1008,6 hPa 0,0 l/m 2,6 km/h (1 Bft) S 180 3,2 C 8,9 C 4,5 km/h (1 Bft)
29.05.2013 20:30 7,4 C 74 % 1008,6 hPa 0,0 l/m 2,6 km/h (1 Bft) SO 135 3,1 C 8,4 C 2,6 km/h (1 Bft)
29.05.2013 20:35 7,0 C 76 % 1008,6 hPa 0,0 l/m 1,9 km/h (1 Bft) O-SO 112 3,1 C 7,8 C 0,0 km/h (0 Bft)
29.05.2013 20:40 6,8 C 77 % 1008,5 hPa 0,0 l/m 1,3 km/h (1 Bft) O-SO 112 3,1 C 7,4 C 0,0 km/h (0 Bft)
29.05.2013 20:45 6,6 C 79 % 1008,5 hPa 0,0 l/m 0,5 km/h (0 Bft) NO 45 3,2 C 6,9 C 1,6 km/h (1 Bft)
29.05.2013 20:50 6,4 C 80 % 1008,5 hPa 0,0 l/m 1,0 km/h (0 Bft) O 90 3,2 C 6,7 C 2,6 km/h (1 Bft)
29.05.2013 20:55 6,3 C 81 % 1008,5 hPa 0,0 l/m 1,8 km/h (1 Bft) O 90 3,3 C 6,4 C 2,3 km/h (1 Bft)
29.05.2013 21:00 6,1 C 82 % 1008,2 hPa 0,0 l/m 1,9 km/h (1 Bft) NO 45 3,3 C 6,1 C 2,7 km/h (1 Bft)
29.05.2013 21:05 6,0 C 83 % 1008,2 hPa 0,0 l/m 2,6 km/h (1 Bft) O 90 3,3 C 6,0 C 3,7 km/h (1 Bft)
29.05.2013 21:10 6,0 C 83 % 1008,2 hPa 0,0 l/m 3,2 km/h (1 Bft) SO 135 3,3 C 5,8 C 3,9 km/h (1 Bft)
29.05.2013 21:15 5,8 C 84 % 1008,2 hPa 0,0 l/m 3,2 km/h (1 Bft) O-NO 67 3,3 C 5,8 C 3,2 km/h (1 Bft)
29.05.2013 21:20 5,8 C 85 % 1008,1 hPa 0,0 l/m 2,9 km/h (1 Bft) O-NO 67 3,5 C 5,6 C 2,1 km/h (1 Bft)
29.05.2013 21:25 5,7 C 85 % 1008,1 hPa 0,0 l/m 2,6 km/h (1 Bft) O 90 3,4 C 5,5 C 2,9 km/h (1 Bft)
29.05.2013 21:30 5,7 C 86 % 1008,1 hPa 0,0 l/m 2,1 km/h (1 Bft) O-SO 112 3,5 C 5,4 C 0,0 km/h (0 Bft)
29.05.2013 21:35 5,6 C 87 % 1008,1 hPa 0,0 l/m 1,0 km/h (0 Bft) O 90 3,6 C 5,4 C 2,3 km/h (1 Bft)
29.05.2013 21:40 5,6 C 87 % 1008,4 hPa 0,0 l/m 0,3 km/h (0 Bft) O-SO 112 3,6 C 5,3 C 0,0 km/h (0 Bft)
29.05.2013 21:45 5,5 C 87 % 1008,4 hPa 0,0 l/m 0,2 km/h (0 Bft) O-SO 112 3,5 C 5,2 C 0,0 km/h (0 Bft)
29.05.2013 21:50 5,5 C 87 % 1008,4 hPa 0,0 l/m 0,0 km/h (0 Bft) O 90 3,5 C 5,2 C 0,0 km/h (0 Bft)
29.05.2013 21:55 5,6 C 87 % 1008,4 hPa 0,0 l/m 0,0 km/h (0 Bft) O 90 3,6 C 5,2 C 0,0 km/h (0 Bft)
29.05.2013 22:00 5,5 C 87 % 1008,6 hPa 0,0 l/m 0,0 km/h (0 Bft) NO 45 3,5 C 5,2 C 0,0 km/h (0 Bft)
29.05.2013 22:05 5,5 C 88 % 1008,6 hPa 0,0 l/m 0,0 km/h (0 Bft) O-SO 112 3,7 C 5,2 C 0,0 km/h (0 Bft)
29.05.2013 22:10 5,3 C 88 % 1008,6 hPa 0,0 l/m 0,0 km/h (0 Bft) O-SO 112 3,5 C 5,1 C 0,0 km/h (0 Bft)
29.05.2013 22:15 5,2 C 88 % 1008,6 hPa 0,0 l/m 0,0 km/h (0 Bft) O-SO 112 3,4 C 5,0 C 0,0 km/h (0 Bft)
29.05.2013 22:20 5,1 C 88 % 1008,6 hPa 0,0 l/m 0,0 km/h (0 Bft) O 90 3,3 C 4,8 C 0,0 km/h (0 Bft)
29.05.2013 22:25 5,1 C 89 % 1008,6 hPa 0,0 l/m 0,0 km/h (0 Bft) NO 45 3,4 C 4,7 C 0,0 km/h (0 Bft)
29.05.2013 22:30 5,0 C 89 % 1008,6 hPa 0,0 l/m 0,2 km/h (0 Bft) SO 135 3,3 C 4,7 C 0,0 km/h (0 Bft)
29.05.2013 22:35 4,9 C 90 % 1008,6 hPa 0,0 l/m 0,0 km/h (0 Bft) NO 45 3,4 C 4,5 C 0,0 km/h (0 Bft)
29.05.2013 22:40 4,9 C 90 % 1008,6 hPa 0,0 l/m 0,0 km/h (0 Bft) NO 45 3,4 C 4,5 C 0,0 km/h (0 Bft)
29.05.2013 22:45 5,0 C 90 % 1008,6 hPa 0,0 l/m 0,0 km/h (0 Bft) O 90 3,5 C 4,6 C 0,0 km/h (0 Bft)
29.05.2013 22:50 5,1 C 90 % 1008,6 hPa 0,0 l/m 0,5 km/h (0 Bft) O-NO 67 3,6 C 4,8 C 2,4 km/h (1 Bft)
29.05.2013 22:55 5,2 C 90 % 1008,6 hPa 0,0 l/m 1,1 km/h (1 Bft) O-NO 67 3,7 C 4,9 C 0,0 km/h (0 Bft)
29.05.2013 23:00 5,2 C 90 % 1008,7 hPa 0,0 l/m 0,8 km/h (0 Bft) NO 45 3,7 C 5,0 C 0,0 km/h (0 Bft)
29.05.2013 23:05 5,2 C 90 % 1008,7 hPa 0,0 l/m 0,0 km/h (0 Bft) O-SO 112 3,7 C 5,0 C 0,0 km/h (0 Bft)
29.05.2013 23:10 5,1 C 90 % 1008,7 hPa 0,0 l/m 0,0 km/h (0 Bft) O-SO 112 3,6 C 4,9 C 0,0 km/h (0 Bft)
29.05.2013 23:15 4,8 C 90 % 1008,7 hPa 0,0 l/m 0,0 km/h (0 Bft) SO 135 3,3 C 4,6 C 0,0 km/h (0 Bft)
29.05.2013 23:20 4,6 C 90 % 1008,6 hPa 0,0 l/m 0,3 km/h (0 Bft) O-NO 67 3,1 C 4,4 C 2,3 km/h (1 Bft)
29.05.2013 23:25 4,6 C 90 % 1008,6 hPa 0,0 l/m 1,8 km/h (1 Bft) O 90 3,1 C 4,3 C 3,4 km/h (1 Bft)
29.05.2013 23:30 4,6 C 90 % 1008,6 hPa 0,0 l/m 2,4 km/h (1 Bft) O-NO 67 3,1 C 4,3 C 2,1 km/h (1 Bft)
29.05.2013 23:35 4,4 C 90 % 1008,6 hPa 0,0 l/m 1,3 km/h (1 Bft) NO 45 2,9 C 4,1 C 1,6 km/h (1 Bft)
29.05.2013 23:40 4,2 C 90 % 1008,7 hPa 0,0 l/m 0,6 km/h (0 Bft) NO 45 2,7 C 4,0 C 0,0 km/h (0 Bft)
29.05.2013 23:45 4,1 C 90 % 1008,7 hPa 0,0 l/m 0,5 km/h (0 Bft) O 90 2,6 C 3,8 C 1,8 km/h (1 Bft)
29.05.2013 23:50 4,2 C 90 % 1008,7 hPa 0,0 l/m 0,5 km/h (0 Bft) NO 45 2,7 C 3,7 C 1,9 km/h (1 Bft)
29.05.2013 23:57 4,1 C 91 % 1008,7 hPa 0,0 l/m 1,1 km/h (1 Bft) O-NO 67 2,8 C 3,7 C 1,6 km/h (1 Bft)
_ Min-Zeit 08:05 18:20 04:35 - 23:15 - - 08:10 08:10 23:40
Minimum _ 2,9 C 70 % 1004,1 hPa - 0,0 km/h (0 Bft) - - 2,1 C -3,5 C 0,0 km/h (0 Bft)
_ Max-Zeit 13:25 09:35 23:57 12:35 06:55 - - 02:35 19:50 06:50
Maximum _ 9,8 C 95 % 1008,7 hPa 0,7 l/m 11,7 km/h
W-NW (2 Bft)
- - 8,2 C 11,5 C 24,5 km/h
S-SO (4 Bft)
Durchschnitt _ 7,1 C 87 % 1006,7 hPa #9,6 l/m 5,0 km/h (1 Bft) S - 5,0 C 6,1 C 6,6 km/h (2 Bft)